Paganella, Italy

10:00 PM CEST on May 24, 2017 (GMT +0200)
Paganella

Weather History for LIVP - October, 2011

Change the Weather History Date:

Thursday, October 13, 2011

  Actual Average Record
Temperature  
Mean Temperature 41 °F -  
Max Temperature 44 °F 39 °F 57 °F (2001)
Min Temperature 37 °F 31 °F 25 °F (2016)
Degree Days  
Heating Degree Days 24    
Moisture  
Dew Point 29 °F    
Average Humidity 58    
Maximum Humidity 76    
Minimum Humidity 23    
Precipitation  
Precipitation 0.00 in 0.08 in - ()
Sea Level Pressure  
Sea Level Pressure 30.19 in    
Wind  
Wind Speed 13 mph ()    
Max Wind Speed 30 mph    
Max Gust Speed -    
Visibility 19.0 miles    
Events      
Averages and records for this station are not official NWS values.
T = Trace of Precipitation, MM = Missing Value Source: Averaged Metar Reports

Daily Weather History Graph

Daily Weather History Graph

Search for Another Location

Airport or City:

Trip Planner

Search our weather history database for the weather conditions in past years. The results will help you decide how hot, cold, wet, or windy it might be!

Date:

Astronomy

Oct. 13, 2011 Rise Set
Actual Time 7:29 AM CEST 6:34 PM CEST
Civil Twilight 6:59 AM CEST 7:04 PM CEST
Nautical Twilight 6:24 AM CEST 7:38 PM CEST
Astronomical Twilight 5:49 AM CEST 8:13 PM CEST
Moon 6:51 PM CEST (10/13) 8:53 AM CEST (10/13)
Length of Visible Light 12h 04m
Length of Day
11h 04m
Full, 98% of the Moon is Illuminated
Oct 13
Full
Oct 20
Last Quarter
Oct 26
New
Nov 2
First Quarter
Nov 10
Full

Hourly Weather History & Observations

Time (CEST) Temp. Windchill Dew Point Humidity Pressure Visibility Wind Dir Wind Speed Gust Speed Precip Events Conditions
12:55 AM 48.2 °F - 21.2 °F 34% 30.15 in - North 11.5 mph - N/A   Clear
1:55 AM 48.2 °F - 21.2 °F 34% 30.15 in - NNE 10.4 mph - N/A   Clear
2:00 AM 48 °F - 22 °F 23%  in 37 mi NNE 10.4 mph - -   Clear
2:55 AM 46.4 °F 39.8 °F 23.0 °F 40% 30.15 in - North 16.1 mph - N/A   Clear
3:55 AM 44.6 °F 34.7 °F 23.0 °F 43% 30.12 in - North 29.9 mph - N/A   Clear
4:55 AM 44.6 °F 36.9 °F 24.8 °F 46% 30.12 in - North 18.4 mph - N/A   Clear
5:00 AM 45 °F - 24 °F 31%  in 31 mi North 18.4 mph - -  
7:55 AM 41.0 °F 31.6 °F 24.8 °F 53% 30.12 in - North 20.7 mph - N/A   Clear
8:00 AM 42 °F - 24 °F 36%  in 37 mi North 20.7 mph - -   Scattered Clouds
8:55 AM 41.0 °F 32.8 °F 26.6 °F 57% 30.18 in - North 16.1 mph - N/A   Clear
9:55 AM 42.8 °F 35.8 °F 28.4 °F 57% 30.21 in - North 13.8 mph - N/A   Clear
12:55 PM 42.8 °F 37.0 °F 35.6 °F 76% 30.21 in - NNE 10.4 mph - N/A   Clear
1:55 PM 42.8 °F 36.2 °F 35.6 °F 76% 30.21 in - NNE 12.7 mph - N/A   Clear
2:00 PM 43 °F - 35 °F 65%  in 44 mi NNE 12.7 mph - -   Scattered Clouds
2:55 PM 44.6 °F 39.2 °F 35.6 °F 71% 30.21 in - North 10.4 mph - N/A   Clear
3:55 PM 44.6 °F 40.7 °F 35.6 °F 71% 30.21 in - North 6.9 mph - N/A   Clear
4:55 PM 44.6 °F 38.8 °F 35.6 °F 71% 30.21 in - NNE 11.5 mph - N/A   Clear
5:55 PM 42.8 °F 35.4 °F 33.8 °F 70% 30.24 in - NE 15.0 mph - N/A   Clear
6:55 PM 41.0 °F 32.2 °F 32.0 °F 70% 30.24 in - NE 18.4 mph - N/A   Clear
7:55 PM 41.0 °F 33.1 °F 32.0 °F 70% 30.24 in - NE 15.0 mph - N/A   Clear
8:00 PM 41 °F - 32 °F 61%  in 31 mi NE 15.0 mph - -  
8:55 PM 39.2 °F 31.6 °F 32.0 °F 75% 30.24 in - NNE 12.7 mph - N/A   Clear
10:55 PM 39.2 °F 35.0 °F 32.0 °F 75% 30.24 in - NNE 5.8 mph - N/A   Clear
11:00 PM 38 °F - 31 °F 68%  in 19 mi NNE 5.8 mph - -   Clear
11:55 PM 37.4 °F 31.4 °F 30.2 °F 75% 30.24 in - NNE 8.1 mph - N/A   Clear